Location: Ecklingerode
(51.5036°N, 10.3122°E)
Time: 07:17:31
(UTC+00:00)

Cosmos 2227 Rocket - Pass Details

Date: 29 October 2020
Orbit: 839 x 845 km, 71.0° (Epoch: 01 December)

Event Time Altitude Azimuth Distance (km) Brightness Sun altitude
Rises 16:49:42 0° 329° (NNW) 3,409 5.6 -8.8°
Reaches altitude 10° 16:52:09 10° 331° (NNW) 2,471 4.9 -9.2°
Maximum altitude 16:57:51 81° 59° (ENE) 861 2.2 -10.0°
Drops below altitude 10° 17:03:30 10° 147° (SSE) 2,460 4.4 -10.9°
Sets 17:05:57 0° 148° (SSE) 3,392 5.1 -11.3°
